Weather History for EGPF - October, 2011

Change the Weather History Date:

Tuesday, October 11, 2011

  Actual Average Record
Temperature  
Mean Temperature 52 °F -  
Max Temperature 57 °F 51 °F 62 °F (2001)
Min Temperature 48 °F 40 °F 30 °F (2013)
Degree Days  
Heating Degree Days 12    
Growing Degree Days 2 (Base 50)    
Moisture  
Dew Point 45 °F    
Average Humidity 80    
Maximum Humidity 94    
Minimum Humidity 58    
Precipitation  
Precipitation 0.00 in - - ()
Sea Level Pressure  
Sea Level Pressure 29.90 in    
Wind  
Wind Speed 10 mph ()    
Max Wind Speed 17 mph    
Max Gust Speed 29 mph    
Visibility 6.1 miles    
Events Rain    
Averages and records for this station are not official NWS values.
T = Trace of Precipitation, MM = Missing Value Source: Averaged Metar Reports

Daily Weather History Graph

Daily Weather History Graph

Search for Another Location

Airport or City:

Trip Planner

Search our weather history database for the weather conditions in past years. The results will help you decide how hot, cold, wet, or windy it might be!

Date:

Astronomy

Oct. 11, 2011 Rise Set
Actual Time 7:39 AM BST 6:28 PM BST
Civil Twilight 7:02 AM BST 7:05 PM BST
Nautical Twilight 6:19 AM BST 7:48 PM BST
Astronomical Twilight 5:36 AM BST 8:31 PM BST
Moon 5:44 PM BST (10/11) 7:08 AM BST (10/11)
Length of Visible Light 12h 02m
Length of Day
10h 48m
Full, 100% of the Moon is Illuminated
Oct 11
Full
Oct 12
Full
Oct 20
Last Quarter
Oct 26
New
Nov 2
First Quarter

Hourly Weather History & Observations

Time (BST) Temp. Dew Point Humidity Pressure Visibility Wind Dir Wind Speed Gust Speed Precip Events Conditions
12:20 AM 50.0 °F 48.2 °F 94% 29.77 in 6.2 mi SW 11.5 mph - N/A   Mostly Cloudy
12:50 AM 51.8 °F 48.2 °F 88% 29.77 in 6.2 mi SSW 9.2 mph - N/A   Mostly Cloudy
1:20 AM 51.8 °F 48.2 °F 88% 29.77 in 6.2 mi SW 8.1 mph - N/A   Mostly Cloudy
1:50 AM 51.8 °F 48.2 °F 88% 29.77 in 6.2 mi SW 8.1 mph - N/A   Mostly Cloudy
2:20 AM 51.8 °F 48.2 °F 88% 29.77 in 3.7 mi WNW 10.4 mph - N/A Rain Light Rain
2:50 AM 50.0 °F 48.2 °F 94% 29.77 in 6.2 mi West 9.2 mph - N/A   Mostly Cloudy
3:20 AM 50.0 °F 46.4 °F 87% 29.77 in 6.2 mi WSW 8.1 mph - N/A   Mostly Cloudy
3:50 AM 50.0 °F 46.4 °F 87% 29.80 in 6.2 mi SW 8.1 mph - N/A   Overcast
4:20 AM 50.0 °F 46.4 °F 87% 29.80 in 6.2 mi SW 10.4 mph - N/A   Mostly Cloudy
4:50 AM 50.0 °F 46.4 °F 87% 29.77 in 6.2 mi WSW 12.7 mph - N/A   Scattered Clouds
5:20 AM 50.0 °F 46.4 °F 87% 29.80 in 6.2 mi WSW 13.8 mph - N/A   Partly Cloudy
5:50 AM 50.0 °F 46.4 °F 87% 29.77 in 6.2 mi WSW 16.1 mph - N/A   Partly Cloudy
6:20 AM 50.0 °F 46.4 °F 87% 29.80 in 6.2 mi WSW 15.0 mph - N/A   Mostly Cloudy
6:50 AM 50.0 °F 46.4 °F 87% 29.80 in 6.2 mi WSW 15.0 mph - N/A   Mostly Cloudy
7:20 AM 51.8 °F 48.2 °F 88% 29.80 in 6.2 mi WSW 16.1 mph - N/A   Mostly Cloudy
7:50 AM 51.8 °F 46.4 °F 82% 29.83 in 6.2 mi West 15.0 mph - N/A   Scattered Clouds
8:20 AM 50.0 °F 44.6 °F 82% 29.83 in 6.2 mi West 13.8 mph - N/A   Scattered Clouds
8:50 AM 50.0 °F 44.6 °F 82% 29.83 in 6.2 mi West 15.0 mph - N/A   Scattered Clouds
9:20 AM 51.8 °F 44.6 °F 76% 29.86 in 6.2 mi West 16.1 mph - N/A   Scattered Clouds
9:50 AM 51.8 °F 44.6 °F 76% 29.86 in 6.2 mi West 13.8 mph - N/A   Scattered Clouds
10:20 AM 51.8 °F 44.6 °F 76% 29.86 in 6.2 mi West 13.8 mph - N/A   Mostly Cloudy
10:50 AM 53.6 °F 46.4 °F 77% 29.89 in 6.2 mi West 16.1 mph - N/A Rain Light Rain
11:20 AM 51.8 °F 46.4 °F 82% 29.89 in 6.2 mi West 12.7 mph - N/A   Mostly Cloudy
11:50 AM 53.6 °F 44.6 °F 72% 29.89 in 6.2 mi West 16.1 mph - N/A   Scattered Clouds
12:20 PM 55.4 °F 44.6 °F 67% 29.89 in 6.2 mi West 16.1 mph - N/A   Scattered Clouds
12:50 PM 57.2 °F 46.4 °F 67% 29.89 in 6.2 mi West 16.1 mph - N/A   Mostly Cloudy
1:20 PM 51.8 °F 46.4 °F 82% 29.92 in 6.2 mi West 15.0 mph - N/A   Mostly Cloudy
1:50 PM 55.4 °F 42.8 °F 63% 29.92 in 6.2 mi West 17.3 mph 28.8 mph N/A   Scattered Clouds
2:20 PM 53.6 °F 42.8 °F 67% 29.92 in 6.2 mi West 12.7 mph - N/A   Scattered Clouds
2:50 PM 53.6 °F 42.8 °F 67% 29.92 in 6.2 mi West 16.1 mph - N/A   Mostly Cloudy
3:20 PM 53.6 °F 41.0 °F 62% 29.95 in 6.2 mi West 16.1 mph - N/A   Partly Cloudy
3:50 PM 53.6 °F 41.0 °F 62% 29.95 in 6.2 mi West 15.0 mph - N/A   Partly Cloudy
4:20 PM 53.6 °F 39.2 °F 58% 29.95 in 6.2 mi West 12.7 mph - N/A   Partly Cloudy
4:50 PM 53.6 °F 41.0 °F 62% 29.95 in 5.6 mi West 10.4 mph - N/A Rain Light Rain Showers
5:20 PM 51.8 °F 42.8 °F 71% 29.98 in 6.2 mi West 9.2 mph - N/A   Partly Cloudy
5:50 PM 51.8 °F 42.8 °F 71% 29.98 in 6.2 mi West 8.1 mph - N/A   Partly Cloudy
6:20 PM 51.8 °F 42.8 °F 71% 29.98 in 6.2 mi West 6.9 mph - N/A   Partly Cloudy
6:50 PM 50.0 °F 44.6 °F 82% 30.01 in 6.2 mi West 5.8 mph - N/A   Scattered Clouds
7:20 PM 50.0 °F 44.6 °F 82% 30.01 in 6.2 mi SW 5.8 mph - N/A   Mostly Cloudy
7:50 PM 50.0 °F 44.6 °F 82% 30.01 in 6.2 mi SW 5.8 mph - N/A   Scattered Clouds
8:20 PM 50.0 °F 44.6 °F 82% 30.04 in 6.2 mi WSW 3.5 mph - N/A   Mostly Cloudy
8:50 PM 48.2 °F 44.6 °F 87% 30.04 in 6.2 mi SW 4.6 mph - N/A   Partly Cloudy
9:20 PM 50.0 °F 44.6 °F 82% 30.04 in 6.2 mi West 4.6 mph - N/A Rain Light Rain
9:50 PM 48.2 °F 46.4 °F 93% 30.04 in 6.2 mi SW 6.9 mph - N/A   Partly Cloudy
10:20 PM 50.0 °F 46.4 °F 87% 30.04 in 6.2 mi West 4.6 mph - N/A   Partly Cloudy
10:50 PM 48.2 °F 46.4 °F 93% 30.04 in 6.2 mi WSW 3.5 mph - N/A   Partly Cloudy
11:20 PM 48.2 °F 46.4 °F 93% 30.04 in 6.2 mi West 3.5 mph - N/A Rain Light Rain
11:50 PM 48.2 °F 46.4 °F 93% 30.04 in 6.2 mi WSW 3.5 mph - N/A Rain Light Rain